DCM240 KTRK-KVNY

Flight info

Callsign DCM240
Flight time N/A
Altitude 35000
Route MOWGL2 SWR REBRG IVINS2
Aircraft B738/M-VGDW/C

Departure

Time 2026-05-04 19:22
Airport Truckee Tahoe Airport (KTRK)

Arrival

Time N/A
Airport Van Nuys Airport (KVNY)
Time Latitude Longitude Altitude Speed Heading
2026-05-04 19:06 39.32079 -120.14831 5908 ft 0 kts 31°
2026-05-04 19:10 39.32082 -120.14828 5908 ft 4 kts 31°
2026-05-04 19:10 39.32110 -120.14773 5908 ft 9 kts 51°
2026-05-04 19:11 39.32148 -120.14734 5908 ft 3 kts 45°
2026-05-04 19:11 39.32151 -120.14712 5908 ft 2 kts 103°
2026-05-04 19:11 39.32129 -120.14663 5908 ft 10 kts 121°
2026-05-04 19:11 39.32088 -120.14571 5908 ft 12 kts 120°
2026-05-04 19:12 39.32042 -120.14467 5908 ft 15 kts 121°
2026-05-04 19:12 39.31895 -120.14138 5908 ft 21 kts 120°
2026-05-04 19:12 39.31820 -120.13974 5908 ft 20 kts 120°
2026-05-04 19:13 39.31749 -120.13814 5908 ft 20 kts 120°
2026-05-04 19:13 39.31680 -120.13659 5908 ft 19 kts 120°
2026-05-04 19:13 39.31613 -120.13509 5908 ft 18 kts 120°
2026-05-04 19:13 39.31549 -120.13367 5908 ft 17 kts 120°
2026-05-04 19:14 39.31489 -120.13232 5908 ft 16 kts 120°
2026-05-04 19:14 39.31469 -120.13191 5908 ft 1 kts 121°
2026-05-04 19:14 39.31470 -120.13186 5908 ft 0 kts 74°
2026-05-04 19:14 39.31470 -120.13184 5908 ft 0 kts 57°
2026-05-04 19:20 39.31476 -120.13177 5908 ft 5 kts 43°
2026-05-04 19:20 39.31503 -120.13156 5908 ft 3 kts 30°
2026-05-04 19:20 39.31524 -120.13145 5908 ft 2 kts 356°
2026-05-04 19:20 39.31533 -120.13148 5908 ft 0 kts 338°
2026-05-04 19:21 39.31540 -120.13161 5908 ft 1 kts 299°
2026-05-04 19:21 39.31540 -120.13162 5908 ft 0 kts 300°
2026-05-04 19:21 39.31612 -120.13328 5908 ft 59 kts 300°
2026-05-04 19:21 39.31950 -120.14081 5909 ft 132 kts 300°
2026-05-04 19:22 39.32505 -120.15323 6024 ft 175 kts 299°
2026-05-04 19:22 39.33160 -120.16634 6714 ft 175 kts 310°
2026-05-04 19:22 39.34153 -120.17483 7374 ft 177 kts 341°
2026-05-04 19:22 39.35376 -120.17863 7923 ft 185 kts 347°
2026-05-04 19:23 39.36636 -120.18158 8566 ft 187 kts 352°
2026-05-04 19:23 39.37929 -120.18363 9201 ft 187 kts 351°
2026-05-04 19:23 39.39202 -120.18665 9789 ft 190 kts 347°
2026-05-04 19:23 39.40520 -120.19054 10273 ft 201 kts 346°
2026-05-04 19:24 39.41940 -120.19514 10618 ft 218 kts 342°
2026-05-04 19:24 39.43395 -120.20319 10973 ft 233 kts 330°
2026-05-04 19:24 39.44725 -120.21596 11447 ft 242 kts 316°
2026-05-04 19:24 39.45834 -120.23327 11714 ft 264 kts 301°
2026-05-04 19:25 39.46697 -120.25517 12171 ft 284 kts 289°
2026-05-04 19:25 39.47131 -120.28128 12500 ft 306 kts 271°
2026-05-04 19:25 39.46858 -120.30946 12590 ft 328 kts 251°
2026-05-04 19:25 39.45786 -120.33644 12677 ft 349 kts 236°
2026-05-04 19:26 39.44183 -120.36118 12729 ft 370 kts 219°
2026-05-04 19:26 39.41922 -120.37850 12851 ft 386 kts 200°
2026-05-04 19:26 39.39299 -120.38608 13319 ft 392 kts 183°
2026-05-04 19:26 39.36555 -120.38536 14051 ft 394 kts 176°
2026-05-04 19:27 39.33792 -120.38100 14640 ft 400 kts 168°
2026-05-04 19:27 39.31123 -120.37150 15382 ft 401 kts 160°
2026-05-04 19:27 39.28556 -120.35747 16008 ft 404 kts 153°
2026-05-04 19:27 39.26132 -120.33909 16660 ft 406 kts 147°
2026-05-04 19:28 39.23780 -120.31876 17241 ft 410 kts 146°
2026-05-04 19:28 39.21363 -120.29820 17856 ft 413 kts 149°
2026-05-04 19:28 39.18777 -120.28160 18423 ft 417 kts 158°
2026-05-04 19:28 39.16022 -120.26981 18983 ft 421 kts 164°
2026-05-04 19:29 39.13167 -120.26126 19521 ft 425 kts 167°
2026-05-04 19:29 39.10268 -120.25425 20030 ft 429 kts 168°
2026-05-04 19:29 39.07742 -120.24851 20476 ft 432 kts 169°
2026-05-04 19:30 39.01670 -120.23513 21397 ft 440 kts 169°
2026-05-04 19:30 38.98585 -120.22842 21758 ft 446 kts 168°
2026-05-04 19:30 38.95544 -120.22186 22125 ft 451 kts 168°
2026-05-04 19:30 38.92417 -120.21513 22454 ft 458 kts 168°
2026-05-04 19:31 38.89255 -120.20835 22785 ft 464 kts 168°
2026-05-04 19:31 38.86333 -120.20210 23121 ft 468 kts 168°
2026-05-04 19:31 38.83005 -120.19502 23566 ft 471 kts 168°
2026-05-04 19:31 38.79759 -120.18810 23990 ft 473 kts 168°
2026-05-04 19:32 38.76520 -120.18122 24393 ft 476 kts 168°
2026-05-04 19:32 38.73261 -120.17431 24783 ft 479 kts 168°
2026-05-04 19:32 38.69992 -120.16740 25156 ft 482 kts 168°
2026-05-04 19:32 38.66651 -120.16011 25526 ft 484 kts 172°
2026-05-04 19:33 38.63364 -120.15081 25849 ft 488 kts 169°
2026-05-04 19:33 38.60066 -120.14050 26193 ft 489 kts 169°
2026-05-04 19:33 38.56745 -120.13032 26522 ft 491 kts 170°
2026-05-04 19:33 38.53440 -120.12074 26971 ft 489 kts 171°
2026-05-04 19:34 38.50103 -120.11163 27423 ft 487 kts 171°
2026-05-04 19:34 38.46796 -120.10318 27877 ft 485 kts 172°
2026-05-04 19:34 38.43482 -120.09525 28315 ft 483 kts 173°
2026-05-04 19:34 38.40202 -120.08791 28772 ft 481 kts 174°
2026-05-04 19:35 38.36906 -120.08093 29218 ft 479 kts 174°
2026-05-04 19:35 38.33642 -120.07430 29686 ft 476 kts 174°
2026-05-04 19:35 38.30431 -120.06786 30131 ft 474 kts 174°
2026-05-04 19:35 38.27163 -120.06126 30632 ft 471 kts 174°
2026-05-04 19:36 38.23903 -120.05469 31079 ft 469 kts 174°
2026-05-04 19:36 38.20686 -120.04823 31491 ft 467 kts 174°
2026-05-04 19:36 38.17513 -120.04185 31912 ft 465 kts 175°
2026-05-04 19:36 38.14294 -120.03537 32296 ft 464 kts 174°
2026-05-04 19:37 38.11128 -120.02898 32670 ft 462 kts 174°
2026-05-04 19:37 38.07977 -120.02267 33038 ft 461 kts 175°
2026-05-04 19:37 38.04798 -120.01632 33347 ft 460 kts 175°
2026-05-04 19:37 38.01660 -120.01003 33721 ft 457 kts 175°
2026-05-04 19:38 37.98590 -120.00393 33969 ft 456 kts 174°
2026-05-04 19:38 37.95444 -119.99767 34264 ft 455 kts 174°
2026-05-04 19:38 37.92346 -119.99152 34515 ft 455 kts 175°
2026-05-04 19:38 37.89225 -119.98537 34782 ft 455 kts 174°
2026-05-04 19:39 37.86143 -119.97924 35043 ft 455 kts 174°
2026-05-04 19:39 37.83049 -119.97310 35327 ft 454 kts 174°
2026-05-04 19:39 37.79926 -119.96687 35620 ft 454 kts 174°
2026-05-04 19:39 37.76855 -119.96077 35897 ft 453 kts 174°
2026-05-04 19:40 37.73719 -119.95455 36159 ft 453 kts 174°
2026-05-04 19:40 37.70623 -119.94840 36382 ft 453 kts 174°
2026-05-04 19:40 37.67545 -119.94230 36620 ft 453 kts 174°
2026-05-04 19:40 37.64469 -119.93618 36885 ft 452 kts 175°
2026-05-04 19:41 37.61339 -119.92998 37037 ft 453 kts 175°
2026-05-04 19:41 37.55061 -119.91762 37060 ft 456 kts 174°
2026-05-04 19:42 37.48811 -119.90533 37066 ft 456 kts 174°
2026-05-04 19:42 37.42588 -119.89312 37074 ft 454 kts 174°
2026-05-04 19:43 37.36400 -119.88094 37073 ft 453 kts 174°
2026-05-04 19:43 37.30159 -119.86871 37074 ft 454 kts 174°
2026-05-04 19:44 37.25058 -119.85872 37074 ft 454 kts 174°
2026-05-04 19:44 37.18101 -119.84514 37073 ft 455 kts 174°
2026-05-04 19:45 37.11823 -119.83292 37073 ft 455 kts 174°
2026-05-04 19:45 37.05632 -119.82085 37072 ft 446 kts 176°
2026-05-04 19:46 36.99881 -119.80959 37074 ft 432 kts 179°
2026-05-04 19:46 36.94608 -119.79926 37074 ft 423 kts 180°
2026-05-04 19:47 36.82336 -119.77551 37074 ft 428 kts 180°
2026-05-04 19:48 36.76481 -119.76420 37073 ft 427 kts 180°
2026-05-04 19:48 36.70617 -119.75288 37074 ft 426 kts 180°
2026-05-04 19:49 36.64755 -119.74159 37074 ft 426 kts 180°
2026-05-04 19:49 36.58901 -119.73033 37074 ft 427 kts 180°
2026-05-04 19:50 36.53000 -119.71901 37074 ft 427 kts 180°
2026-05-04 19:50 36.47145 -119.70779 37074 ft 427 kts 180°
2026-05-04 19:51 36.41293 -119.69659 37074 ft 427 kts 180°
2026-05-04 19:51 36.35439 -119.68540 37074 ft 426 kts 180°
2026-05-04 19:52 36.29596 -119.67426 37074 ft 426 kts 180°
2026-05-04 19:52 36.23747 -119.66313 37074 ft 426 kts 180°
2026-05-04 19:53 36.17845 -119.65192 37074 ft 426 kts 180°
2026-05-04 19:53 36.12023 -119.64088 37074 ft 426 kts 180°
2026-05-04 19:54 36.06137 -119.62976 37074 ft 426 kts 180°
2026-05-04 19:54 36.00317 -119.62392 37074 ft 417 kts 188°
2026-05-04 19:55 35.94618 -119.62760 37074 ft 411 kts 193°
2026-05-04 19:55 35.88960 -119.63588 37075 ft 409 kts 195°
2026-05-04 19:56 35.83325 -119.64600 37073 ft 406 kts 195°
2026-05-04 19:56 35.77799 -119.65665 37074 ft 404 kts 196°
2026-05-04 19:57 35.72225 -119.66770 37074 ft 405 kts 195°
2026-05-04 19:57 35.66598 -119.67373 36764 ft 409 kts 189°
2026-05-04 19:57 35.63765 -119.67387 36047 ft 412 kts 187°
2026-05-04 19:58 35.60916 -119.67221 35349 ft 414 kts 184°
2026-05-04 19:58 35.58026 -119.66894 34564 ft 416 kts 183°
2026-05-04 19:58 35.55175 -119.66521 33948 ft 414 kts 182°
2026-05-04 19:58 35.52287 -119.66130 33495 ft 415 kts 182°
2026-05-04 19:59 35.49429 -119.65713 32937 ft 420 kts 179°
2026-05-04 19:59 35.46549 -119.65070 32258 ft 425 kts 175°
2026-05-04 19:59 35.43658 -119.64284 31546 ft 422 kts 174°
2026-05-04 19:59 35.40825 -119.63476 30933 ft 415 kts 173°
2026-05-04 20:00 35.38041 -119.62672 30399 ft 408 kts 173°
2026-05-04 20:00 35.35306 -119.61881 29598 ft 408 kts 172°
2026-05-04 20:00 35.32516 -119.61079 28288 ft 416 kts 171°
2026-05-04 20:00 35.29680 -119.60261 27184 ft 419 kts 169°
2026-05-04 20:01 35.26861 -119.59476 25974 ft 423 kts 168°
2026-05-04 20:01 35.24060 -119.58447 24819 ft 426 kts 161°
2026-05-04 20:01 35.21388 -119.56921 23936 ft 422 kts 152°
2026-05-04 20:01 35.18958 -119.55002 23054 ft 419 kts 146°
2026-05-04 20:02 35.16575 -119.52930 22154 ft 415 kts 146°
2026-05-04 20:02 35.14264 -119.50868 21250 ft 411 kts 144°
2026-05-04 20:02 35.12029 -119.48786 20372 ft 407 kts 142°
2026-05-04 20:02 35.09832 -119.46658 20050 ft 397 kts 141°
2026-05-04 20:03 35.07692 -119.44518 20056 ft 402 kts 140°
2026-05-04 20:03 35.05539 -119.42316 20042 ft 408 kts 140°
2026-05-04 20:03 35.03367 -119.40060 20044 ft 408 kts 140°
2026-05-04 20:03 35.01196 -119.37865 19695 ft 401 kts 144°
2026-05-04 20:04 34.98936 -119.35908 18670 ft 400 kts 148°
2026-05-04 20:04 34.96590 -119.34059 17733 ft 398 kts 150°
2026-05-04 20:04 34.94273 -119.32313 17078 ft 392 kts 152°
2026-05-04 20:04 34.91931 -119.30589 17057 ft 397 kts 154°
2026-05-04 20:05 34.89500 -119.28822 17049 ft 416 kts 155°
2026-05-04 20:05 34.86935 -119.26984 17045 ft 431 kts 155°
2026-05-04 20:05 34.84334 -119.25205 16789 ft 424 kts 157°
2026-05-04 20:05 34.81695 -119.23560 16011 ft 418 kts 159°
2026-05-04 20:06 34.79120 -119.22060 15322 ft 413 kts 159°
2026-05-04 20:06 34.76519 -119.20576 14542 ft 409 kts 159°
2026-05-04 20:06 34.73974 -119.19113 14036 ft 402 kts 158°
2026-05-04 20:06 34.71482 -119.17651 14007 ft 403 kts 158°
2026-05-04 20:07 34.68932 -119.16109 13994 ft 407 kts 156°
2026-05-04 20:07 34.66473 -119.14423 13981 ft 409 kts 151°
2026-05-04 20:07 34.64111 -119.12543 13253 ft 405 kts 149°
2026-05-04 20:07 34.61906 -119.10461 12501 ft 403 kts 137°
2026-05-04 20:08 34.60155 -119.07848 11744 ft 401 kts 124°
2026-05-04 20:08 34.58898 -119.04813 10968 ft 398 kts 112°
2026-05-04 20:08 34.58133 -119.01609 10223 ft 395 kts 105°
2026-05-04 20:08 34.57472 -118.98390 9492 ft 390 kts 105°
2026-05-04 20:09 34.56829 -118.95213 8770 ft 385 kts 105°
2026-05-04 20:09 34.56198 -118.92067 8026 ft 381 kts 105°
2026-05-04 20:09 34.55582 -118.88987 7430 ft 372 kts 106°
2026-05-04 20:09 34.54985 -118.85967 6750 ft 367 kts 105°
2026-05-04 20:10 34.54387 -118.82992 6083 ft 362 kts 106°
2026-05-04 20:10 34.53797 -118.80042 5979 ft 344 kts 107°
2026-05-04 20:10 34.53248 -118.77307 5984 ft 322 kts 105°
2026-05-04 20:10 34.52736 -118.74756 6002 ft 302 kts 106°
2026-05-04 20:11 34.52258 -118.72371 6003 ft 285 kts 105°
2026-05-04 20:11 34.51794 -118.70064 6010 ft 269 kts 106°
2026-05-04 20:11 34.51367 -118.67950 6034 ft 248 kts 106°
2026-05-04 20:11 34.50970 -118.65967 6038 ft 231 kts 107°
2026-05-04 20:12 34.50592 -118.64068 6016 ft 230 kts 106°
2026-05-04 20:12 34.50230 -118.62204 6023 ft 228 kts 106°
2026-05-04 20:12 34.49870 -118.60304 6029 ft 228 kts 105°
2026-05-04 20:12 34.49517 -118.58422 6031 ft 229 kts 105°
2026-05-04 20:13 34.49169 -118.56539 6033 ft 228 kts 105°
2026-05-04 20:13 34.48785 -118.54676 6030 ft 226 kts 113°
2026-05-04 20:13 34.47999 -118.53026 6031 ft 223 kts 134°
2026-05-04 20:13 34.46810 -118.51872 6034 ft 220 kts 153°
2026-05-04 20:14 34.45372 -118.51234 6032 ft 217 kts 170°
2026-05-04 20:14 34.43884 -118.51063 5977 ft 219 kts 178°
2026-05-04 20:14 34.42337 -118.50997 5622 ft 221 kts 178°
2026-05-04 20:14 34.40801 -118.50902 5288 ft 218 kts 176°
2026-05-04 20:15 34.39304 -118.50777 4946 ft 217 kts 175°
2026-05-04 20:15 34.37788 -118.50634 4597 ft 217 kts 174°
2026-05-04 20:15 34.36292 -118.50494 4244 ft 217 kts 174°
2026-05-04 20:15 34.35963 -118.50464 4169 ft 216 kts 175°